[[{"header":{"parameterUnit":"m.s-1","parameterCategory":1,"la1":30.2991,"la2":30.254,"lo1":-89.0895,"lo2":-89.0444,"dy":0.0017,"dx":0.0017,"nx":28,"ny":28,"refTime":"2023-09-12T09:00:00:Z","depth":0,"parameterNumber":2,"parameterNumberName":"U-component_of_WINDS"},"data":[0,0,0,0,0,0,0,0,0,0,0,0,0,0,0,0,0,0,0,0,0,0,0,0,0,0,0,0,0,0,0,0,0,0,0,0,0,0,0,0,0,0,0,0,0,0,0,0,0,0,0,0,0,0,0,0,0,0,1.4753,1.4753,0,1.4767,1.4767,1.4767,1.474,1.4739,1.4739,1.4738,1.4752,1.4753,1.4754,0,0,0,0,0,0,0,0,0,0,0,0,0,1.4699,1.4701,1.4753,1.4753,1.4753,1.4767,1.4767,1.4767,1.474,1.4739,1.4738,1.4737,1.4751,1.4753,1.4754,0,0,0,0,0,0,0,0,0,0,0,0,0,1.4719,1.4701,1.4753,1.4741,1.474,1.4767,1.4767,1.4767,1.4741,1.4739,1.4738,1.4737,1.4751,1.4753,1.4754,1.4792,0,0,1.476,1.4761,0,0,0,0,0,0,0,0,1.4718,1.4721,1.4743,1.4742,1.4741,1.4751,1.4754,1.4776,1.4741,1.4741,1.4738,1.4736,1.4752,1.4754,1.476,1.4793,1.4794,1.476,1.4761,1.4762,1.4762,0,0,0,0,0,0,0,1.4717,1.472,1.4758,1.4743,1.4742,1.4735,1.4736,1.4758,1.4754,1.4741,1.4739,1.4741,1.4752,1.4758,1.476,1.4794,1.476,1.4762,1.4763,1.4763,1.4856,1.4857,0,0,0,0,0,0,1.4717,1.4719,1.4758,1.4759,1.4726,1.4737,1.4738,1.4749,1.4753,1.4753,1.4742,1.4739,1.4755,1.4758,1.476,1.4802,1.4762,1.4764,1.4765,1.4854,1.4856,1.4857,0,0,0,0,0,0,1.4716,1.4721,1.4757,1.4739,1.4743,1.4739,1.4751,1.475,1.4756,1.4754,1.4753,1.4749,1.4754,1.4757,1.4784,1.4802,1.4764,1.4766,1.4853,1.4855,1.4857,1.4889,0,0,0,0,0,0,1.4715,1.4721,1.4736,1.4739,1.4744,1.4782,1.4753,1.4751,1.4759,1.4756,1.4761,1.476,1.4754,1.4781,1.4786,1.4804,1.4767,1.4851,1.4854,1.4856,1.4886,1.4892,1.4896,0,0,0,0,0,1.4713,1.4745,1.4737,1.4741,1.4763,1.4783,1.4786,1.4777,1.4761,1.4775,1.4774,1.476,1.48,1.4784,1.4789,1.4808,1.485,1.4853,1.4856,1.4884,1.489,1.4896,0,0,0,0,0,0,1.4744,1.4745,1.4736,1.4771,1.4777,1.4778,1.4797,1.4785,1.4796,1.4793,1.4782,1.4783,1.4811,1.4813,1.4795,1.4844,1.4822,1.4826,1.4841,1.4848,1.4853,1.4851,1.4769,0,0,0,0,0,1.4755,1.4772,1.4772,1.4802,1.4806,1.4801,1.4809,1.4802,1.4808,1.481,1.4811,1.4817,1.483,1.484,1.4852,1.4886,1.4885,1.4902,1.4907,1.4911,1.4915,1.493,1.4936,1.4867,1.4867,1.4867,0,0,1.4778,1.4781,1.4792,1.4808,1.4812,1.4828,1.4803,1.4822,1.4834,1.4813,1.4837,1.4838,1.4844,1.4873,1.4886,1.4875,1.4933,1.4915,1.4919,1.492,1.4933,1.494,1.4946,1.4869,1.4869,1.4869,0,0,1.4827,1.4832,1.4856,1.486,1.4866,1.4862,1.4868,1.4871,1.487,1.4894,1.4878,1.4892,1.4916,1.492,1.4925,1.4973,1.4959,1.4977,1.5004,1.5019,1.5024,1.5029,1.5043,1.5049,1.4981,1.4981,1.4981,0,1.4855,1.4879,1.487,1.4889,1.4896,1.4878,1.4901,1.4905,1.4915,1.4919,1.4907,1.4935,1.4938,1.4967,1.4978,1.4984,1.4988,1.4976,1.5024,1.5029,1.5033,1.5047,1.5053,1.4983,1.4983,1.4982,1.4982,0,1.4911,1.4928,1.4947,1.4956,1.4964,1.4986,1.4978,1.4988,1.498,1.4977,1.5,1.5002,1.5014,1.502,1.5013,1.5047,1.504,1.5026,1.5004,1.5042,1.5054,1.506,1.4986,1.4985,1.4984,1.4984,0,0,1.4981,1.4983,1.499,1.4992,1.4997,1.5009,1.5029,1.5039,1.5046,1.5054,1.5068,1.5088,1.5075,1.508,1.5073,1.5087,1.5121,1.5071,1.5071,1.5078,1.5155,1.5164,1.517,1.5113,1.5114,1.5114,1.5154,0,1.5028,1.5061,1.5052,1.5085,1.5099,1.5081,1.5097,1.5101,1.5098,1.5109,1.5106,1.5119,1.5102,1.5105,1.5117,1.5114,1.5136,1.5111,1.5124,1.5125,1.5121,1.5177,1.5187,1.5224,1.5159,1.516,1.5161,0,1.5087,1.5095,1.5129,1.5128,1.5133,1.5148,1.5156,1.5167,1.517,1.5167,1.5172,1.5161,1.5179,1.5157,1.518,1.5163,1.5168,1.5167,1.5168,1.5168,1.5144,1.5176,1.5236,1.5241,1.5169,1.5168,1.5167,0,1.5131,1.5151,1.5172,1.5175,1.5176,1.5186,1.5187,1.5189,1.5194,1.5201,1.5204,1.5213,1.5218,1.5224,1.5215,1.5201,1.5238,1.5217,1.5234,1.5234,1.5242,1.5241,1.5301,1.5249,1.5248,1.5248,1.5248,0,1.5183,1.5204,1.5192,1.5205,1.5227,1.5216,1.5238,1.5236,1.5237,1.5249,1.5235,1.5246,1.5234,1.5244,1.5237,1.5255,1.5258,1.5255,1.5252,1.5255,1.5255,1.5257,1.5253,1.525,1.5249,1.5249,1.5249,0,1.5236,1.5229,1.5251,1.5249,1.5249,1.5264,1.5262,1.5273,1.5269,1.5284,1.5287,1.528,1.529,1.5282,1.5293,1.5288,1.5311,1.5306,1.531,1.5308,1.5325,1.5322,1.5387,1.5394,1.5338,1.5339,1.5339,0,1.5268,1.5284,1.5282,1.5289,1.529,1.5301,1.5306,1.5296,1.5302,1.5305,1.5315,1.5324,1.5331,1.5348,1.5343,1.5351,1.5344,1.5366,1.5345,1.5347,1.5342,1.534,1.534,1.537,1.5371,1.5371,1.5372,0,1.5326,1.5321,1.533,1.5336,1.5343,1.5348,1.5351,1.5357,1.5346,1.5354,1.5364,1.5369,1.5378,1.5387,1.5392,1.5392,1.5379,1.5379,1.5382,1.5384,1.5385,1.5382,1.5319,1.5377,1.5376,1.5376,1.5376,1.5375,1.5368,1.5379,1.5379,1.5388,1.539,1.5393,1.5402,1.5399,1.5407,1.5413,1.5407,1.5418,1.5418,1.5424,1.5425,1.5433,1.5424,1.543,1.5431,1.5433,1.5434,1.5385,1.5434,1.5434,1.5434,1.5434,1.5434,0,1.5422,1.5421,1.5429,1.5434,1.5441,1.5428,1.5431,1.5437,1.5447,1.5449,1.5455,1.5465,1.5472,1.5468,1.5474,1.5481,1.5475,1.5483,1.5481,1.548,1.5443,1.5438,1.5487,1.5487,1.5487,1.5487,1.5487,1.5487,1.5451,1.5469,1.5464,1.5481,1.5479,1.549,1.5492,1.5494,1.5495,1.5507,1.5512,1.5509,1.5507,1.5513,1.5519,1.5517,1.5519,1.5528,1.5524,1.5489,1.5483,1.5478,1.5473,1.5529,1.5529,1.556,1.5561,1.5561]},{"header":{"parameterUnit":"m.s-1","parameterCategory":1,"la1":30.2991,"la2":30.254,"lo1":-89.0895,"lo2":-89.0444,"dy":0.0017,"dx":0.0017,"nx":28,"ny":28,"refTime":"2023-09-12T09:00:00:Z","depth":0,"parameterNumber":3,"parameterNumberName":"V-component_of_WINDS"},"data":[0,0,0,0,0,0,0,0,0,0,0,0,0,0,0,0,0,0,0,0,0,0,0,0,0,0,0,0,0,0,0,0,0,0,0,0,0,0,0,0,0,0,0,0,0,0,0,0,0,0,0,0,0,0,0,0,0,0,3.955,3.955,0,3.9561,3.9561,3.9561,3.9507,3.9505,3.9504,3.9502,3.9512,3.9514,3.9515,0,0,0,0,0,0,0,0,0,0,0,0,0,3.948,3.9482,3.955,3.955,3.955,3.9561,3.9561,3.9561,3.9507,3.9505,3.9503,3.9501,3.9511,3.9514,3.9516,0,0,0,0,0,0,0,0,0,0,0,0,0,3.9503,3.9482,3.955,3.9525,3.9522,3.9561,3.9561,3.9561,3.9507,3.9505,3.9503,3.95,3.9511,3.9513,3.9516,3.9579,0,0,3.9524,3.9525,0,0,0,0,0,0,0,0,3.9502,3.9505,3.9528,3.9526,3.9524,3.953,3.954,3.9567,3.9508,3.9513,3.9502,3.9499,3.952,3.9522,3.9529,3.9579,3.958,3.9524,3.9526,3.9527,3.9527,0,0,0,0,0,0,0,3.95,3.9505,3.9554,3.9529,3.9526,3.9512,3.9512,3.9545,3.9529,3.9512,3.9508,3.9511,3.9518,3.9526,3.9528,3.958,3.9524,3.9526,3.9528,3.9529,3.9679,3.9682,0,0,0,0,0,0,3.9502,3.9504,3.9554,3.9555,3.9507,3.9515,3.9516,3.953,3.9529,3.9526,3.9513,3.9508,3.9523,3.9526,3.9529,3.96,3.9527,3.9529,3.9531,3.9677,3.968,3.9683,0,0,0,0,0,0,3.9501,3.9507,3.9553,3.9528,3.9533,3.9519,3.9536,3.9532,3.954,3.9529,3.9526,3.9524,3.9521,3.9525,3.9566,3.9599,3.953,3.9533,3.9674,3.9678,3.9681,3.9744,0,0,0,0,0,0,3.9499,3.9507,3.9532,3.9529,3.9534,3.9592,3.9538,3.9534,3.9545,3.9539,3.9539,3.9536,3.952,3.9563,3.9569,3.9602,3.9535,3.9671,3.9676,3.968,3.9739,3.9749,3.9758,0,0,0,0,0,3.9497,3.9549,3.9533,3.9539,3.9565,3.9594,3.9597,3.9577,3.9548,3.9571,3.9564,3.9536,3.9595,3.9567,3.9574,3.9608,3.9669,3.9674,3.968,3.9734,3.9747,3.9758,0,0,0,0,0,0,3.9556,3.9549,3.953,3.9584,3.959,3.9584,3.9614,3.9591,3.9606,3.9599,3.9574,3.9574,3.9619,3.9618,3.9587,3.9667,3.9627,3.9634,3.9666,3.9678,3.9688,3.9686,3.9537,0,0,0,0,0,3.9576,3.96,3.9592,3.964,3.9644,3.9629,3.964,3.9624,3.9629,3.9631,3.9627,3.9633,3.9652,3.9665,3.9683,3.9739,3.9737,3.9766,3.9775,3.9783,3.9789,3.9816,3.9828,3.9701,3.9701,3.9701,0,0,3.9616,3.9615,3.9632,3.9652,3.9654,3.9679,3.9631,3.966,3.9677,3.9636,3.9673,3.9671,3.9675,3.9723,3.9744,3.9724,3.9824,3.979,3.9797,3.9798,3.9823,3.9835,3.9845,3.9704,3.9704,3.9703,0,0,3.9701,3.9704,3.9742,3.9746,3.975,3.9739,3.9749,3.9746,3.9743,3.978,3.9749,3.9769,3.9804,3.9808,3.9814,3.9899,3.9873,3.9905,3.9955,3.9982,3.9992,4.0,4.0028,4.0039,3.9912,3.9912,3.9912,0,3.975,3.9786,3.9765,3.9795,3.9804,3.9767,3.9805,3.9809,3.9819,3.9825,3.9803,3.9844,3.9844,3.9891,3.9912,3.9919,3.9927,3.9904,3.9992,4.0001,4.0008,4.0034,4.0045,3.9915,3.9915,3.9915,3.9914,0,3.9845,3.9871,3.9901,3.9911,3.9923,3.9957,3.994,3.9955,3.9938,3.9929,3.9966,3.9966,3.9981,3.9992,3.9976,4.0036,4.0023,3.9997,3.9955,4.0025,4.0048,4.0058,3.9921,3.9919,3.9918,3.9917,0,0,3.9968,3.9964,3.9975,3.9978,3.9979,3.9998,4.003,4.0045,4.0057,4.0065,4.009,4.0119,4.0094,4.0102,4.0086,4.0109,4.0173,4.008,4.0079,4.0095,4.0236,4.0254,4.0266,4.0157,4.0159,4.016,4.0235,0,4.0048,4.0102,4.0083,4.0137,4.0159,4.0124,4.0151,4.0154,4.0147,4.0164,4.0156,4.0176,4.0143,4.0147,4.0169,4.0161,4.0201,4.0155,4.0177,4.0178,4.0175,4.0279,4.0298,4.0369,4.0244,4.0246,4.0247,0,4.015,4.0161,4.0217,4.0212,4.0221,4.0246,4.0256,4.0274,4.0276,4.0269,4.0277,4.0255,4.0284,4.0245,4.0284,4.0253,4.0261,4.0259,4.0261,4.026,4.0215,4.0278,4.0391,4.0401,4.0262,4.0261,4.026,0,4.023,4.0259,4.0296,4.0299,4.0296,4.0313,4.0313,4.0313,4.0322,4.0332,4.0337,4.0351,4.0358,4.0368,4.035,4.0323,4.0391,4.035,4.0384,4.0384,4.0398,4.0397,4.0511,4.0408,4.0408,4.0407,4.0407,0,4.0321,4.0356,4.0331,4.0353,4.0391,4.0368,4.0406,4.0401,4.0401,4.0421,4.0393,4.0412,4.0388,4.0405,4.0392,4.0424,4.0428,4.0422,4.0418,4.0423,4.0424,4.0426,4.042,4.041,4.0409,4.0409,4.0408,0,4.0416,4.0401,4.0438,4.0431,4.043,4.0458,4.0451,4.0471,4.0461,4.0487,4.0491,4.0476,4.0494,4.0478,4.0496,4.0486,4.0529,4.0519,4.0528,4.0524,4.0558,4.0554,4.0676,4.0689,4.058,4.0581,4.0582,0,4.0474,4.0499,4.0495,4.0506,4.0506,4.0525,4.0534,4.0512,4.0523,4.0526,4.0545,4.0561,4.0572,4.0602,4.0592,4.0605,4.0593,4.0635,4.0595,4.0599,4.0591,4.0588,4.0589,4.0642,4.0644,4.0645,4.0646,0,4.0577,4.0567,4.0581,4.0592,4.0603,4.0611,4.0617,4.0627,4.0605,4.0618,4.0636,4.0644,4.0661,4.0676,4.0686,4.0684,4.0661,4.0659,4.0667,4.0671,4.0674,4.067,4.0547,4.0655,4.0654,4.0654,4.0653,4.0653,4.0653,4.0673,4.0672,4.0688,4.0689,4.0695,4.0712,4.0704,4.0718,4.073,4.0717,4.0737,4.0738,4.0748,4.0749,4.0765,4.0747,4.076,4.0762,4.0765,4.0768,4.0674,4.0767,4.0767,4.0766,4.0766,4.0766,0,4.0752,4.0749,4.0764,4.0771,4.0783,4.0761,4.0765,4.0776,4.0795,4.0797,4.0808,4.0827,4.0841,4.0833,4.0844,4.0858,4.0848,4.0862,4.0859,4.0859,4.0785,4.0775,4.087,4.087,4.087,4.087,4.087,4.087,4.0804,4.0836,4.0827,4.0858,4.0856,4.0875,4.0879,4.0883,4.0885,4.0907,4.0918,4.0912,4.091,4.0921,4.0932,4.0929,4.0934,4.0952,4.0945,4.0875,4.0865,4.0855,4.0845,4.0953,4.0954,4.1017,4.1017,4.1018]}]]